Time,TemperatureF,DewpointF,PressureIn,WindDirection,WindDirectionDegrees,WindSpeedMPH,WindSpeedGustMPH,Humidity,HourlyPrecipIn,Conditions,Clouds,dailyrainin,SoftwareType,DateUTC
2013-05-14 00:00:00,64.4,20.0,29.94,SSE,161,6.3,6.3,18,0.00,,---,0.00,VWS V14.01,2013-05-14 06:00:00,
2013-05-14 00:06:00,64.6,20.1,29.94,SSE,163,6.3,6.3,18,0.00,,---,0.00,VWS V14.01,2013-05-14 06:06:00,
2013-05-14 00:12:00,64.6,22.6,29.94,SSE,160,6.3,6.3,20,0.00,,---,0.00,VWS V14.01,2013-05-14 06:12:00,
2013-05-14 00:17:00,64.4,22.5,29.94,SSE,160,6.3,6.3,20,0.00,,---,0.00,VWS V14.01,2013-05-14 06:17:00,
2013-05-14 00:23:00,64.4,22.5,29.91,SSE,161,5.8,6.7,20,0.00,,---,0.00,VWS V14.01,2013-05-14 06:23:00,
2013-05-14 00:29:00,64.4,22.5,29.91,SSE,164,6.3,6.3,20,0.00,,---,0.00,VWS V14.01,2013-05-14 06:29:00,
2013-05-14 00:34:00,64.2,23.5,29.91,SSE,164,6.3,6.3,21,0.00,,---,0.00,VWS V14.01,2013-05-14 06:34:00,
2013-05-14 00:39:00,64.0,23.3,29.91,SSE,168,5.4,6.3,21,0.00,,---,0.00,VWS V14.01,2013-05-14 06:39:00,
2013-05-14 00:44:00,63.7,23.0,29.91,SSE,164,5.8,5.8,21,0.00,,---,0.00,VWS V14.01,2013-05-14 06:44:00,
2013-05-14 00:49:00,63.3,22.8,29.91,SSE,160,5.8,5.8,21,0.00,,---,0.00,VWS V14.01,2013-05-14 06:49:00,
2013-05-14 00:54:00,63.1,22.6,29.91,SSE,166,5.4,5.8,21,0.00,,---,0.00,VWS V14.01,2013-05-14 06:54:00,
2013-05-14 01:00:00,62.6,22.1,29.91,South,181,4.9,5.4,21,0.00,,---,0.00,VWS V14.01,2013-05-14 07:00:00,
2013-05-14 01:05:00,62.4,22.0,29.91,South,181,5.4,5.4,21,0.00,,---,0.00,VWS V14.01,2013-05-14 07:05:00,
2013-05-14 01:11:00,62.2,25.0,29.91,South,176,5.8,6.3,24,0.00,,---,0.00,VWS V14.01,2013-05-14 07:11:00,
2013-05-14 01:16:00,62.1,24.9,29.91,South,180,4.9,4.9,24,0.00,,---,0.00,VWS V14.01,2013-05-14 07:16:00,
2013-05-14 01:22:00,62.1,24.9,29.91,South,178,4.0,4.9,24,0.00,,---,0.00,VWS V14.01,2013-05-14 07:22:00,
2013-05-14 01:28:00,61.9,24.7,29.91,South,176,3.1,3.6,24,0.00,,---,0.00,VWS V14.01,2013-05-14 07:28:00,
2013-05-14 01:33:00,61.9,24.7,29.91,South,185,4.0,4.0,24,0.00,,---,0.00,VWS V14.01,2013-05-14 07:33:00,
2013-05-14 01:39:00,61.5,24.4,29.91,South,177,3.6,3.6,24,0.00,,---,0.00,VWS V14.01,2013-05-14 07:39:00,
2013-05-14 01:45:00,61.3,24.3,29.91,South,173,3.6,3.6,24,0.00,,---,0.00,VWS V14.01,2013-05-14 07:45:00,
2013-05-14 01:51:00,60.8,23.8,29.91,SSE,160,4.9,4.9,24,0.00,,---,0.00,VWS V14.01,2013-05-14 07:51:00,
2013-05-14 01:57:00,60.6,23.6,29.91,SSE,160,4.0,4.0,24,0.00,,---,0.00,VWS V14.01,2013-05-14 07:57:00,
2013-05-14 02:02:00,60.3,23.4,29.91,SSE,160,4.5,4.9,24,0.00,,---,0.00,VWS V14.01,2013-05-14 08:02:00,
2013-05-14 02:08:00,59.7,22.9,29.88,SSE,163,3.6,4.0,24,0.00,,---,0.00,VWS V14.01,2013-05-14 08:08:00,
2013-05-14 02:13:00,59.5,22.7,29.88,SSE,163,4.0,4.5,24,0.00,,---,0.00,VWS V14.01,2013-05-14 08:13:00,
2013-05-14 02:18:00,59.4,22.6,29.88,SSE,163,4.9,4.9,24,0.00,,---,0.00,VWS V14.01,2013-05-14 08:18:00,
2013-05-14 02:24:00,59.2,22.4,29.88,SSE,168,4.5,4.9,24,0.00,,---,0.00,VWS V14.01,2013-05-14 08:24:00,
2013-05-14 02:29:00,59.2,22.4,29.88,SSE,168,4.0,4.9,24,0.00,,---,0.00,VWS V14.01,2013-05-14 08:29:00,
2013-05-14 02:35:00,59.0,23.2,29.88,South,176,4.0,4.5,25,0.00,,---,0.00,VWS V14.01,2013-05-14 08:35:00,
2013-05-14 02:40:00,59.2,23.4,29.88,South,186,5.8,5.8,25,0.00,,---,0.00,VWS V14.01,2013-05-14 08:40:00,
2013-05-14 02:45:00,59.4,23.6,29.88,South,170,4.9,4.9,25,0.00,,---,0.00,VWS V14.01,2013-05-14 08:45:00,
2013-05-14 02:50:00,59.4,23.6,29.88,SSE,168,4.0,4.0,25,0.00,,---,0.00,VWS V14.01,2013-05-14 08:50:00,
2013-05-14 02:56:00,59.2,23.4,29.88,South,185,5.4,5.8,25,0.00,,---,0.00,VWS V14.01,2013-05-14 08:56:00,
2013-05-14 03:01:00,59.0,23.2,29.88,South,176,4.0,4.0,25,0.00,,---,0.00,VWS V14.01,2013-05-14 09:01:00,
2013-05-14 03:06:00,58.6,22.9,29.88,SSE,165,3.6,3.6,25,0.00,,---,0.00,VWS V14.01,2013-05-14 09:06:00,
2013-05-14 03:11:00,58.5,22.8,29.88,South,172,3.6,4.0,25,0.00,,---,0.00,VWS V14.01,2013-05-14 09:11:00,
2013-05-14 03:17:00,58.1,23.4,29.88,SSE,155,5.4,5.8,26,0.00,,---,0.00,VWS V14.01,2013-05-14 09:17:00,
2013-05-14 03:22:00,57.7,23.1,29.88,SSE,166,4.9,4.9,26,0.00,,---,0.00,VWS V14.01,2013-05-14 09:22:00,
2013-05-14 03:28:00,57.6,23.0,29.88,South,182,4.0,4.0,26,0.00,,---,0.00,VWS V14.01,2013-05-14 09:28:00,
2013-05-14 03:34:00,57.4,22.8,29.88,South,182,2.7,2.7,26,0.00,,---,0.00,VWS V14.01,2013-05-14 09:34:00,
2013-05-14 03:39:00,57.4,22.8,29.88,South,182,2.7,3.1,26,0.00,,---,0.00,VWS V14.01,2013-05-14 09:39:00,
2013-05-14 03:45:00,57.2,22.6,29.88,South,182,2.7,3.1,26,0.00,,---,0.00,VWS V14.01,2013-05-14 09:45:00,
2013-05-14 03:50:00,57.0,23.4,29.88,South,182,0.0,0.0,27,0.00,,---,0.00,VWS V14.01,2013-05-14 09:50:00,
2013-05-14 03:55:00,56.8,23.2,29.88,South,182,0.0,0.0,27,0.00,,---,0.00,VWS V14.01,2013-05-14 09:55:00,
2013-05-14 04:01:00,57.0,23.4,29.88,WSW,239,4.0,4.0,27,0.00,,---,0.00,VWS V14.01,2013-05-14 10:01:00,
2013-05-14 04:07:00,57.0,24.3,29.88,SW,217,4.9,4.9,28,0.00,,---,0.00,VWS V14.01,2013-05-14 10:07:00,
2013-05-14 04:12:00,57.2,24.4,29.88,SW,219,3.6,3.6,28,0.00,,---,0.00,VWS V14.01,2013-05-14 10:12:00,
2013-05-14 04:17:00,57.4,24.6,29.88,WSW,240,4.9,4.9,28,0.00,,---,0.00,VWS V14.01,2013-05-14 10:17:00,
2013-05-14 04:23:00,57.6,24.7,29.88,SW,227,4.0,5.4,28,0.00,,---,0.00,VWS V14.01,2013-05-14 10:23:00,
2013-05-14 04:28:00,57.6,25.6,29.88,SW,232,4.0,4.9,29,0.00,,---,0.00,VWS V14.01,2013-05-14 10:28:00,
2013-05-14 04:33:00,57.6,25.6,29.88,SW,225,4.9,6.3,29,0.00,,---,0.00,VWS V14.01,2013-05-14 10:33:00,
2013-05-14 04:38:00,57.6,25.6,29.88,SW,232,4.5,4.9,29,0.00,,---,0.00,VWS V14.01,2013-05-14 10:38:00,
2013-05-14 04:43:00,57.6,25.6,29.88,SW,222,3.6,3.6,29,0.00,,---,0.00,VWS V14.01,2013-05-14 10:43:00,
2013-05-14 04:49:00,57.2,26.1,29.88,SSW,210,4.0,4.0,30,0.00,,---,0.00,VWS V14.01,2013-05-14 10:49:00,
2013-05-14 04:55:00,57.2,26.1,29.88,SW,220,5.4,5.4,30,0.00,,---,0.00,VWS V14.01,2013-05-14 10:55:00,
2013-05-14 05:00:00,57.2,26.9,29.88,WSW,241,7.6,7.6,31,0.00,,---,0.00,VWS V14.01,2013-05-14 11:00:00,
2013-05-14 05:05:00,57.0,27.5,29.88,WSW,241,7.6,7.6,32,0.00,,---,0.00,VWS V14.01,2013-05-14 11:05:00,
2013-05-14 05:10:00,57.0,28.2,29.88,WSW,242,8.7,10.1,33,0.00,,---,0.00,VWS V14.01,2013-05-14 11:10:00,
2013-05-14 05:16:00,56.5,28.5,29.88,SW,223,8.1,8.1,34,0.00,,---,0.00,VWS V14.01,2013-05-14 11:16:00,
2013-05-14 05:21:00,55.9,28.7,29.88,SW,230,3.6,5.4,35,0.00,,---,0.00,VWS V14.01,2013-05-14 11:21:00,
2013-05-14 05:27:00,55.4,28.2,29.88,SW,236,2.7,4.0,35,0.00,,---,0.00,VWS V14.01,2013-05-14 11:27:00,
2013-05-14 05:33:00,54.9,27.8,29.88,West,265,4.5,6.3,35,0.00,,---,0.00,VWS V14.01,2013-05-14 11:33:00,
2013-05-14 05:38:00,54.7,28.3,29.88,West,271,8.3,8.3,36,0.00,,---,0.00,VWS V14.01,2013-05-14 11:38:00,
2013-05-14 05:44:00,54.7,28.9,29.88,WSW,246,3.6,5.4,37,0.00,,---,0.00,VWS V14.01,2013-05-14 11:44:00,
2013-05-14 05:49:00,55.4,28.9,29.88,WSW,238,0.0,0.0,36,0.00,,---,0.00,VWS V14.01,2013-05-14 11:49:00,
2013-05-14 05:54:00,55.8,29.2,29.88,SSW,205,3.1,3.6,36,0.00,,---,0.00,VWS V14.01,2013-05-14 11:54:00,
2013-05-14 05:59:00,56.5,29.9,29.88,SSW,209,2.7,2.7,36,0.00,,---,0.00,VWS V14.01,2013-05-14 11:59:00,
2013-05-14 06:05:00,56.7,30.0,29.88,SSW,210,3.6,4.0,36,0.00,,---,0.00,VWS V14.01,2013-05-14 12:05:00,
2013-05-14 06:10:00,57.6,30.8,29.85,SSW,198,3.1,3.1,36,0.00,,---,0.00,VWS V14.01,2013-05-14 12:10:00,
2013-05-14 06:15:00,58.1,31.3,29.85,South,181,4.0,4.0,36,0.00,,---,0.00,VWS V14.01,2013-05-14 12:15:00,
2013-05-14 06:20:00,58.8,32.0,29.85,South,179,3.6,4.0,36,0.00,,---,0.00,VWS V14.01,2013-05-14 12:20:00,
2013-05-14 06:26:00,60.1,32.4,29.88,SSE,168,3.1,4.0,35,0.00,,---,0.00,VWS V14.01,2013-05-14 12:26:00,
2013-05-14 06:31:00,60.3,32.5,29.88,South,182,4.0,4.0,35,0.00,,---,0.00,VWS V14.01,2013-05-14 12:31:00,
2013-05-14 06:37:00,61.0,33.2,29.88,SSW,196,4.0,4.0,35,0.00,,---,0.00,VWS V14.01,2013-05-14 12:37:00,
2013-05-14 06:42:00,61.2,32.6,29.88,SSW,207,2.7,4.0,34,0.00,,---,0.00,VWS V14.01,2013-05-14 12:42:00,
2013-05-14 06:48:00,61.0,32.4,29.88,West,271,7.2,7.6,34,0.00,,---,0.00,VWS V14.01,2013-05-14 12:48:00,
2013-05-14 06:54:00,61.2,33.3,29.88,SW,222,5.8,5.8,35,0.00,,---,0.00,VWS V14.01,2013-05-14 12:54:00,
2013-05-14 06:59:00,62.1,34.1,29.88,SW,219,4.9,4.9,35,0.00,,---,0.00,VWS V14.01,2013-05-14 12:59:00,
2013-05-14 07:04:00,62.8,34.0,29.88,SSW,195,4.0,5.4,34,0.00,,---,0.00,VWS V14.01,2013-05-14 13:04:00,
2013-05-14 07:09:00,63.7,34.8,29.88,SW,227,5.8,5.8,34,0.00,,---,0.00,VWS V14.01,2013-05-14 13:09:00,
2013-05-14 07:15:00,64.4,34.7,29.88,SSW,205,4.9,5.4,33,0.00,,---,0.00,VWS V14.01,2013-05-14 13:15:00,
2013-05-14 07:20:00,64.9,35.2,29.88,SW,232,5.8,6.7,33,0.00,,---,0.00,VWS V14.01,2013-05-14 13:20:00,
2013-05-14 07:26:00,65.3,34.7,29.91,WSW,248,7.6,7.6,32,0.00,,---,0.00,VWS V14.01,2013-05-14 13:26:00,
2013-05-14 07:31:00,65.5,34.9,29.91,SW,225,6.3,6.3,32,0.00,,---,0.00,VWS V14.01,2013-05-14 13:31:00,
2013-05-14 07:37:00,66.6,34.2,29.91,WSW,250,5.4,5.4,30,0.00,,---,0.00,VWS V14.01,2013-05-14 13:37:00,
2013-05-14 07:42:00,67.5,34.1,29.91,SSW,195,2.7,5.8,29,0.00,,---,0.00,VWS V14.01,2013-05-14 13:42:00,
2013-05-14 07:47:00,68.2,33.9,29.91,SW,235,5.4,5.4,28,0.00,,---,0.00,VWS V14.01,2013-05-14 13:47:00,
2013-05-14 07:53:00,68.9,34.5,29.91,SSW,213,4.0,4.9,28,0.00,,---,0.00,VWS V14.01,2013-05-14 13:53:00,
2013-05-14 07:58:00,70.0,34.5,29.88,SSW,192,5.8,6.3,27,0.00,,---,0.00,VWS V14.01,2013-05-14 13:58:00,
2013-05-14 08:04:00,71.1,35.4,29.88,South,187,5.8,5.8,27,0.00,,---,0.00,VWS V14.01,2013-05-14 14:04:00,
2013-05-14 08:09:00,72.3,34.6,29.88,South,191,6.7,6.7,25,0.00,,---,0.00,VWS V14.01,2013-05-14 14:09:00,
2013-05-14 08:15:00,72.3,34.6,29.88,WSW,240,6.3,6.3,25,0.00,,---,0.00,VWS V14.01,2013-05-14 14:15:00,
2013-05-14 08:21:00,74.8,34.6,29.88,West,265,8.3,8.3,23,0.00,,---,0.00,VWS V14.01,2013-05-14 14:21:00,
2013-05-14 08:26:00,75.7,34.2,29.88,WSW,248,11.0,11.0,22,0.00,,---,0.00,VWS V14.01,2013-05-14 14:26:00,
2013-05-14 08:32:00,76.3,34.7,29.88,West,260,10.1,10.1,22,0.00,,---,0.00,VWS V14.01,2013-05-14 14:32:00,
2013-05-14 08:37:00,76.8,35.1,29.88,WSW,247,8.7,8.7,22,0.00,,---,0.00,VWS V14.01,2013-05-14 14:37:00,
2013-05-14 08:43:00,78.4,34.1,29.88,West,262,12.3,12.3,20,0.00,,---,0.00,VWS V14.01,2013-05-14 14:43:00,
2013-05-14 08:49:00,78.1,33.8,29.88,WSW,258,8.7,8.7,20,0.00,,---,0.00,VWS V14.01,2013-05-14 14:49:00,
2013-05-14 08:54:00,78.1,33.8,29.88,West,276,10.5,11.0,20,0.00,,---,0.00,VWS V14.01,2013-05-14 14:54:00,
2013-05-14 08:59:00,77.9,33.6,29.88,SW,227,11.0,11.0,20,0.00,,---,0.00,VWS V14.01,2013-05-14 14:59:00,
2013-05-14 09:04:00,78.1,33.8,29.88,WSW,249,8.1,8.1,20,0.00,,---,0.00,VWS V14.01,2013-05-14 15:04:00,
2013-05-14 09:10:00,78.6,31.6,29.85,West,260,10.5,11.0,18,0.00,,---,0.00,VWS V14.01,2013-05-14 15:10:00,
2013-05-14 09:15:00,79.7,31.1,29.85,West,272,15.0,15.0,17,0.00,,---,0.00,VWS V14.01,2013-05-14 15:15:00,
2013-05-14 09:21:00,79.5,30.9,29.85,WSW,252,11.0,11.0,17,0.00,,---,0.00,VWS V14.01,2013-05-14 15:21:00,
2013-05-14 09:26:00,78.8,30.4,29.85,WSW,251,11.0,11.0,17,0.00,,---,0.00,VWS V14.01,2013-05-14 15:26:00,
2013-05-14 09:32:00,78.8,30.4,29.85,WSW,238,11.0,11.4,17,0.00,,---,0.00,VWS V14.01,2013-05-14 15:32:00,
2013-05-14 09:37:00,81.9,32.8,29.88,WSW,244,8.3,8.3,17,0.00,,---,0.00,VWS V14.01,2013-05-14 15:37:00,
2013-05-14 09:43:00,82.9,28.9,29.88,WSW,247,9.6,9.6,14,0.00,,---,0.00,VWS V14.01,2013-05-14 15:43:00,
2013-05-14 09:48:00,83.5,29.3,29.88,WNW,289,12.3,12.3,14,0.00,,---,0.00,VWS V14.01,2013-05-14 15:48:00,
2013-05-14 09:53:00,83.5,29.3,29.88,West,272,6.3,10.1,14,0.00,,---,0.00,VWS V14.01,2013-05-14 15:53:00,
2013-05-14 09:59:00,84.9,28.6,29.88,WSW,248,11.0,11.0,13,0.00,,---,0.00,VWS V14.01,2013-05-14 15:59:00,
2013-05-14 10:04:00,85.5,29.1,29.88,WSW,248,11.0,11.0,13,0.00,,---,0.00,VWS V14.01,2013-05-14 16:04:00,
2013-05-14 10:09:00,86.2,29.6,29.88,WSW,257,8.1,9.6,13,0.00,,---,0.00,VWS V14.01,2013-05-14 16:09:00,
2013-05-14 10:14:00,87.1,26.3,29.88,WNW,294,11.0,11.0,11,0.00,,---,0.00,VWS V14.01,2013-05-14 16:14:00,
2013-05-14 10:20:00,87.6,19.1,29.88,West,270,12.8,12.8,8,0.00,,---,0.00,VWS V14.01,2013-05-14 16:20:00,
2013-05-14 10:25:00,87.8,19.2,29.88,West,277,10.5,10.5,8,0.00,,---,0.00,VWS V14.01,2013-05-14 16:25:00,
2013-05-14 10:31:00,88.5,19.8,29.88,West,260,10.1,10.1,8,0.00,,---,0.00,VWS V14.01,2013-05-14 16:31:00,
2013-05-14 10:36:00,89.1,20.2,29.88,West,277,13.2,13.2,8,0.00,,---,0.00,VWS V14.01,2013-05-14 16:36:00,
2013-05-14 10:42:00,89.8,17.6,29.88,WNW,302,13.2,13.2,7,0.00,,---,0.00,VWS V14.01,2013-05-14 16:42:00,
2013-05-14 10:47:00,90.1,17.9,29.88,NW,309,11.0,11.0,7,0.00,,---,0.00,VWS V14.01,2013-05-14 16:47:00,
2013-05-14 10:53:00,90.3,18.0,29.88,WNW,301,10.5,11.4,7,0.00,,---,0.00,VWS V14.01,2013-05-14 16:53:00,
2013-05-14 10:58:00,90.5,18.1,29.88,NW,311,10.1,10.1,7,0.00,,---,0.00,VWS V14.01,2013-05-14 16:58:00,
2013-05-14 11:04:00,90.9,18.4,29.88,NW,313,11.0,15.4,7,0.00,,---,0.00,VWS V14.01,2013-05-14 17:04:00,
2013-05-14 11:10:00,90.9,18.4,29.85,WNW,290,12.8,17.0,7,0.00,,---,0.00,VWS V14.01,2013-05-14 17:10:00,
2013-05-14 11:15:00,90.7,18.2,29.85,WNW,295,15.4,15.4,7,0.00,,---,0.00,VWS V14.01,2013-05-14 17:15:00,
2013-05-14 11:21:00,90.9,18.4,29.85,NNW,327,10.5,15.0,7,0.00,,---,0.00,VWS V14.01,2013-05-14 17:21:00,
2013-05-14 11:26:00,91.0,18.5,29.85,WNW,302,15.9,15.9,7,0.00,,---,0.00,VWS V14.01,2013-05-14 17:26:00,
2013-05-14 11:31:00,91.2,18.6,29.85,WNW,297,13.2,13.2,7,0.00,,---,0.00,VWS V14.01,2013-05-14 17:31:00,
2013-05-14 11:36:00,91.2,18.6,29.85,NW,314,12.8,13.2,7,0.00,,---,0.00,VWS V14.01,2013-05-14 17:36:00,
2013-05-14 11:42:00,91.8,19.0,29.85,NW,306,8.7,12.8,7,0.00,,---,0.00,VWS V14.01,2013-05-14 17:42:00,
2013-05-14 11:47:00,91.9,19.2,29.85,NNE,26,17.0,17.0,7,0.00,,---,0.00,VWS V14.01,2013-05-14 17:47:00,
2013-05-14 11:52:00,91.6,18.9,29.85,North,0,13.2,15.4,7,0.00,,---,0.00,VWS V14.01,2013-05-14 17:52:00,
2013-05-14 11:58:00,91.4,18.8,29.85,NW,319,12.3,13.2,7,0.00,,---,0.00,VWS V14.01,2013-05-14 17:58:00,
2013-05-14 12:03:00,91.6,18.9,29.85,North,349,10.1,12.8,7,0.00,,---,0.00,VWS V14.01,2013-05-14 18:03:00,
2013-05-14 12:08:00,91.4,18.8,29.85,NNW,338,19.7,19.7,7,0.00,,---,0.00,VWS V14.01,2013-05-14 18:08:00,
2013-05-14 12:13:00,91.6,18.9,29.85,NE,56,6.3,15.0,7,0.00,,---,0.00,VWS V14.01,2013-05-14 18:13:00,
2013-05-14 12:19:00,91.9,19.2,29.85,North,353,7.6,7.6,7,0.00,,---,0.00,VWS V14.01,2013-05-14 18:19:00,
2013-05-14 12:24:00,92.5,19.6,29.85,North,353,8.3,8.3,7,0.00,,---,0.00,VWS V14.01,2013-05-14 18:24:00,
2013-05-14 12:30:00,92.8,19.8,29.85,NW,311,5.8,12.8,7,0.00,,---,0.00,VWS V14.01,2013-05-14 18:30:00,
2013-05-14 12:35:00,93.2,16.5,29.85,NNE,17,5.4,5.4,6,0.00,,---,0.00,VWS V14.01,2013-05-14 18:35:00,
2013-05-14 12:40:00,93.6,16.8,29.85,NW,315,15.4,15.4,6,0.00,,---,0.00,VWS V14.01,2013-05-14 18:40:00,
2013-05-14 12:45:00,93.9,17.0,29.85,NW,306,10.5,10.5,6,0.00,,---,0.00,VWS V14.01,2013-05-14 18:45:00,
2013-05-14 12:51:00,94.1,17.1,29.85,NW,307,4.0,4.0,6,0.00,,---,0.00,VWS V14.01,2013-05-14 18:51:00,
2013-05-14 12:56:00,94.3,17.3,29.85,North,349,15.0,15.0,6,0.00,,---,0.00,VWS V14.01,2013-05-14 18:56:00,
2013-05-14 13:02:00,94.1,17.1,29.85,NNW,340,5.4,7.6,6,0.00,,---,0.00,VWS V14.01,2013-05-14 19:02:00,
2013-05-14 13:07:00,93.9,17.0,29.85,NW,315,12.3,13.6,6,0.00,,---,0.00,VWS V14.01,2013-05-14 19:07:00,
2013-05-14 13:13:00,94.1,17.1,29.82,North,0,14.5,14.5,6,0.00,,---,0.00,VWS V14.01,2013-05-14 19:13:00,
2013-05-14 13:18:00,94.1,17.1,29.82,NW,325,7.6,7.6,6,0.00,,---,0.00,VWS V14.01,2013-05-14 19:18:00,
2013-05-14 13:23:00,94.3,17.3,29.82,NNE,14,5.8,9.6,6,0.00,,---,0.00,VWS V14.01,2013-05-14 19:23:00,
2013-05-14 13:29:00,94.5,17.4,29.82,North,0,13.2,13.2,6,0.00,,---,0.00,VWS V14.01,2013-05-14 19:29:00,
2013-05-14 13:34:00,94.6,17.5,29.82,North,353,11.0,11.0,6,0.00,,---,0.00,VWS V14.01,2013-05-14 19:34:00,
2013-05-14 13:40:00,94.8,17.7,29.82,WSW,248,7.6,7.6,6,0.00,,---,0.00,VWS V14.01,2013-05-14 19:40:00,
2013-05-14 13:46:00,95.0,17.8,29.82,West,278,5.4,15.4,6,0.00,,---,0.00,VWS V14.01,2013-05-14 19:46:00,
2013-05-14 13:52:00,95.4,18.0,29.82,WNW,297,7.6,8.1,6,0.00,,---,0.00,VWS V14.01,2013-05-14 19:52:00,
2013-05-14 13:58:00,95.9,18.4,29.82,NNE,14,15.9,17.4,6,0.00,,---,0.00,VWS V14.01,2013-05-14 19:58:00,
2013-05-14 14:04:00,94.8,17.7,29.82,NNW,336,7.6,8.1,6,0.00,,---,0.00,VWS V14.01,2013-05-14 20:04:00,
2013-05-14 14:09:00,94.1,17.1,29.82,NW,304,2.7,4.0,6,0.00,,---,0.00,VWS V14.01,2013-05-14 20:09:00,
2013-05-14 14:15:00,94.1,17.1,29.82,NNE,15,8.1,11.0,6,0.00,,---,0.00,VWS V14.01,2013-05-14 20:15:00,
2013-05-14 14:20:00,94.1,17.1,29.82,North,0,2.7,2.7,6,0.00,,---,0.00,VWS V14.01,2013-05-14 20:20:00,
2013-05-14 14:26:00,93.9,17.0,29.82,NNE,29,13.2,13.2,6,0.00,,---,0.00,VWS V14.01,2013-05-14 20:26:00,
2013-05-14 14:32:00,94.3,17.3,29.82,North,5,13.2,16.3,6,0.00,,---,0.00,VWS V14.01,2013-05-14 20:32:00,
2013-05-14 14:37:00,94.1,17.1,29.82,NE,38,10.5,10.5,6,0.00,,---,0.00,VWS V14.01,2013-05-14 20:37:00,
2013-05-14 14:43:00,94.3,17.3,29.82,North,357,11.0,16.8,6,0.00,,---,0.00,VWS V14.01,2013-05-14 20:43:00,
2013-05-14 14:49:00,95.2,17.9,29.82,NNE,24,15.4,15.4,6,0.00,,---,0.00,VWS V14.01,2013-05-14 20:49:00,
2013-05-14 14:54:00,94.6,17.5,29.82,NNE,18,4.0,12.8,6,0.00,,---,0.00,VWS V14.01,2013-05-14 20:54:00,
2013-05-14 14:59:00,94.3,17.3,29.82,NW,326,11.0,11.0,6,0.00,,---,0.00,VWS V14.01,2013-05-14 20:59:00,
2013-05-14 15:04:00,93.6,16.8,29.82,NNW,343,12.3,13.2,6,0.00,,---,0.00,VWS V14.01,2013-05-14 21:04:00,
2013-05-14 15:10:00,93.4,16.6,29.79,North,357,10.5,13.6,6,0.00,,---,0.00,VWS V14.01,2013-05-14 21:10:00,
2013-05-14 15:15:00,93.2,16.5,29.79,NNW,342,6.3,6.3,6,0.00,,---,0.00,VWS V14.01,2013-05-14 21:15:00,
2013-05-14 15:21:00,93.2,16.5,29.79,NNW,342,8.1,8.1,6,0.00,,---,0.00,VWS V14.01,2013-05-14 21:21:00,
2013-05-14 15:26:00,93.0,20.0,29.79,NW,318,12.8,12.8,7,0.00,,---,0.00,VWS V14.01,2013-05-14 21:26:00,
2013-05-14 15:31:00,92.7,19.7,29.79,NNW,335,8.7,9.6,7,0.00,,---,0.00,VWS V14.01,2013-05-14 21:31:00,
2013-05-14 15:36:00,92.7,19.7,29.79,NNE,14,10.5,10.5,7,0.00,,---,0.00,VWS V14.01,2013-05-14 21:36:00,
2013-05-14 15:42:00,92.7,19.7,29.79,North,357,8.7,8.7,7,0.00,,---,0.00,VWS V14.01,2013-05-14 21:42:00,
2013-05-14 15:47:00,92.7,19.7,29.79,North,357,6.3,6.3,7,0.00,,---,0.00,VWS V14.01,2013-05-14 21:47:00,
2013-05-14 15:53:00,92.5,19.6,29.79,NNW,346,6.3,6.3,7,0.00,,---,0.00,VWS V14.01,2013-05-14 21:53:00,
2013-05-14 15:58:00,92.7,19.7,29.79,NE,37,8.3,8.3,7,0.00,,---,0.00,VWS V14.01,2013-05-14 21:58:00,
2013-05-14 16:04:00,92.5,19.6,29.79,North,11,10.1,10.1,7,0.00,,---,0.00,VWS V14.01,2013-05-14 22:04:00,
2013-05-14 16:09:00,92.5,19.6,29.79,North,353,7.6,7.6,7,0.00,,---,0.00,VWS V14.01,2013-05-14 22:09:00,
2013-05-14 16:14:00,92.7,19.7,29.79,NNE,32,8.1,10.1,7,0.00,,---,0.00,VWS V14.01,2013-05-14 22:14:00,
2013-05-14 16:20:00,92.7,19.7,29.79,NE,43,9.2,9.2,7,0.00,,---,0.00,VWS V14.01,2013-05-14 22:20:00,
2013-05-14 16:26:00,92.8,19.8,29.79,North,0,10.1,12.3,7,0.00,,---,0.00,VWS V14.01,2013-05-14 22:26:00,
2013-05-14 16:32:00,93.2,16.5,29.79,ENE,66,8.1,8.1,6,0.00,,---,0.00,VWS V14.01,2013-05-14 22:32:00,
2013-05-14 16:37:00,93.4,16.6,29.79,ENE,58,11.4,11.4,6,0.00,,---,0.00,VWS V14.01,2013-05-14 22:37:00,
2013-05-14 16:43:00,93.7,16.9,29.79,NE,45,11.0,11.4,6,0.00,,---,0.00,VWS V14.01,2013-05-14 22:43:00,
2013-05-14 16:49:00,93.9,17.0,29.79,ENE,57,10.1,10.1,6,0.00,,---,0.00,VWS V14.01,2013-05-14 22:49:00,
2013-05-14 16:54:00,94.3,17.3,29.79,NNE,31,8.3,11.0,6,0.00,,---,0.00,VWS V14.01,2013-05-14 22:54:00,
2013-05-14 17:00:00,94.3,17.3,29.79,NNE,28,13.2,13.2,6,0.00,,---,0.00,VWS V14.01,2013-05-14 23:00:00,
2013-05-14 17:06:00,93.9,17.0,29.79,NE,40,8.1,8.1,6,0.00,,---,0.00,VWS V14.01,2013-05-14 23:06:00,
2013-05-14 17:11:00,93.6,16.8,29.79,ENE,64,7.6,10.1,6,0.00,,---,0.00,VWS V14.01,2013-05-14 23:11:00,
2013-05-14 17:17:00,93.2,16.5,29.79,NE,44,9.6,9.6,6,0.00,,---,0.00,VWS V14.01,2013-05-14 23:17:00,
2013-05-14 17:23:00,93.6,16.8,29.79,NE,55,8.1,8.1,6,0.00,,---,0.00,VWS V14.01,2013-05-14 23:23:00,
2013-05-14 17:28:00,93.7,16.9,29.79,ENE,63,7.6,10.1,6,0.00,,---,0.00,VWS V14.01,2013-05-14 23:28:00,
2013-05-14 17:34:00,93.4,16.6,29.79,NNE,28,7.6,7.6,6,0.00,,---,0.00,VWS V14.01,2013-05-14 23:34:00,
2013-05-14 17:39:00,93.2,16.5,29.79,NE,45,10.5,10.5,6,0.00,,---,0.00,VWS V14.01,2013-05-14 23:39:00,
2013-05-14 17:45:00,93.4,16.6,29.79,NNE,31,8.7,10.5,6,0.00,,---,0.00,VWS V14.01,2013-05-14 23:45:00,
2013-05-14 17:50:00,93.6,16.8,29.79,NNE,28,6.3,8.3,6,0.00,,---,0.00,VWS V14.01,2013-05-14 23:50:00,
2013-05-14 17:56:00,93.9,17.0,29.79,NE,47,11.4,11.4,6,0.00,,---,0.00,VWS V14.01,2013-05-14 23:56:00,
2013-05-14 18:02:00,93.4,16.6,29.79,NE,50,11.0,11.0,6,0.00,,---,0.00,VWS V14.01,2013-05-15 00:02:00,
2013-05-14 18:07:00,92.5,19.6,29.79,NE,50,11.0,11.0,7,0.00,,---,0.00,VWS V14.01,2013-05-15 00:07:00,
2013-05-14 18:13:00,90.7,10.6,29.79,NE,51,8.3,8.3,5,0.00,,---,0.00,VWS V14.01,2013-05-15 00:13:00,
2013-05-14 18:18:00,89.8,9.9,29.79,NE,55,10.5,11.0,5,0.00,,---,0.00,VWS V14.01,2013-05-15 00:18:00,
2013-05-14 18:24:00,88.5,9.1,29.79,NE,54,10.1,10.1,5,0.00,,---,0.00,VWS V14.01,2013-05-15 00:24:00,
2013-05-14 18:29:00,87.6,12.5,29.79,NE,52,8.3,10.1,6,0.00,,---,0.00,VWS V14.01,2013-05-15 00:29:00,
2013-05-14 18:34:00,86.9,12.0,29.79,NE,53,8.7,8.7,6,0.00,,---,0.00,VWS V14.01,2013-05-15 00:34:00,
2013-05-14 18:39:00,86.2,11.5,29.79,NE,38,8.7,8.7,6,0.00,,---,0.00,VWS V14.01,2013-05-15 00:39:00,
2013-05-14 18:45:00,85.6,11.1,29.76,NE,47,8.1,8.1,6,0.00,,---,0.00,VWS V14.01,2013-05-15 00:45:00,
2013-05-14 18:50:00,85.6,11.1,29.76,NE,39,8.7,8.7,6,0.00,,---,0.00,VWS V14.01,2013-05-15 00:50:00,
2013-05-14 18:56:00,84.2,10.1,29.76,NE,42,8.7,8.7,6,0.00,,---,0.00,VWS V14.01,2013-05-15 00:56:00,
2013-05-14 19:02:00,84.4,10.2,29.79,NE,45,9.2,9.2,6,0.00,,---,0.00,VWS V14.01,2013-05-15 01:02:00,
2013-05-14 19:08:00,84.0,9.9,29.79,NE,49,8.1,8.3,6,0.00,,---,0.00,VWS V14.01,2013-05-15 01:08:00,
2013-05-14 19:13:00,84.0,9.9,29.79,ENE,67,7.6,7.6,6,0.00,,---,0.00,VWS V14.01,2013-05-15 01:13:00,
2013-05-14 19:19:00,82.8,9.0,29.79,ENE,57,10.5,10.5,6,0.00,,---,0.00,VWS V14.01,2013-05-15 01:19:00,
2013-05-14 19:24:00,82.6,8.9,29.79,NE,50,9.6,9.6,6,0.00,,---,0.00,VWS V14.01,2013-05-15 01:24:00,
2013-05-14 19:30:00,82.4,8.8,29.79,NE,52,11.0,11.4,6,0.00,,---,0.00,VWS V14.01,2013-05-15 01:30:00,
2013-05-14 19:36:00,82.2,12.1,29.79,ENE,62,11.0,11.4,7,0.00,,---,0.00,VWS V14.01,2013-05-15 01:36:00,
2013-05-14 19:41:00,82.6,18.1,29.79,NE,54,10.5,10.5,9,0.00,,---,0.00,VWS V14.01,2013-05-15 01:41:00,
2013-05-14 19:47:00,82.2,17.8,29.79,NE,49,12.8,12.8,9,0.00,,---,0.00,VWS V14.01,2013-05-15 01:47:00,
2013-05-14 19:52:00,81.7,17.4,29.79,ENE,61,11.9,11.9,9,0.00,,---,0.00,VWS V14.01,2013-05-15 01:52:00,
2013-05-14 19:57:00,81.1,17.0,29.79,ENE,57,11.4,11.4,9,0.00,,---,0.00,VWS V14.01,2013-05-15 01:57:00,
2013-05-14 20:02:00,80.8,16.7,29.79,ENE,61,12.3,12.3,9,0.00,,---,0.00,VWS V14.01,2013-05-15 02:02:00,
2013-05-14 20:08:00,80.4,18.9,29.79,NE,56,12.8,12.8,10,0.00,,---,0.00,VWS V14.01,2013-05-15 02:08:00,
2013-05-14 20:13:00,80.2,18.8,29.79,NE,52,10.5,10.5,10,0.00,,---,0.00,VWS V14.01,2013-05-15 02:13:00,
2013-05-14 20:19:00,79.9,18.5,29.79,ENE,64,10.5,11.0,10,0.00,,---,0.00,VWS V14.01,2013-05-15 02:19:00,
2013-05-14 20:24:00,79.5,18.2,29.79,East,81,12.8,13.2,10,0.00,,---,0.00,VWS V14.01,2013-05-15 02:24:00,
2013-05-14 20:30:00,79.5,18.2,29.79,ENE,68,13.2,13.2,10,0.00,,---,0.00,VWS V14.01,2013-05-15 02:30:00,
2013-05-14 20:35:00,79.2,18.0,29.79,ENE,74,15.0,15.0,10,0.00,,---,0.00,VWS V14.01,2013-05-15 02:35:00,
2013-05-14 20:40:00,78.6,17.5,29.79,ENE,59,13.2,13.2,10,0.00,,---,0.00,VWS V14.01,2013-05-15 02:40:00,
2013-05-14 20:46:00,78.6,17.5,29.79,ENE,68,13.6,13.6,10,0.00,,---,0.00,VWS V14.01,2013-05-15 02:46:00,
2013-05-14 20:51:00,78.8,17.7,29.82,ENE,58,14.1,14.1,10,0.00,,---,0.00,VWS V14.01,2013-05-15 02:51:00,
2013-05-14 20:57:00,78.1,17.1,29.82,NE,55,15.0,15.0,10,0.00,,---,0.00,VWS V14.01,2013-05-15 02:57:00,
2013-05-14 21:02:00,77.5,16.7,29.82,ENE,59,15.0,15.0,10,0.00,,---,0.00,VWS V14.01,2013-05-15 03:02:00,
2013-05-14 21:08:00,77.4,16.6,29.82,NE,56,13.6,13.6,10,0.00,,---,0.00,VWS V14.01,2013-05-15 03:08:00,
2013-05-14 21:13:00,77.4,16.6,29.82,NE,55,13.6,15.9,10,0.00,,---,0.00,VWS V14.01,2013-05-15 03:13:00,
2013-05-14 21:19:00,77.4,16.6,29.82,ENE,58,13.2,15.0,10,0.00,,---,0.00,VWS V14.01,2013-05-15 03:19:00,
2013-05-14 21:25:00,77.2,16.5,29.82,NE,54,13.2,15.0,10,0.00,,---,0.00,VWS V14.01,2013-05-15 03:25:00,
2013-05-14 21:30:00,77.2,16.5,29.82,NE,52,15.4,15.4,10,0.00,,---,0.00,VWS V14.01,2013-05-15 03:30:00,
2013-05-14 21:36:00,77.2,16.5,29.82,NE,44,15.9,15.9,10,0.00,,---,0.00,VWS V14.01,2013-05-15 03:36:00,
2013-05-14 21:41:00,77.2,16.5,29.85,NE,40,16.8,17.0,10,0.00,,---,0.00,VWS V14.01,2013-05-15 03:41:00,
2013-05-14 21:47:00,76.8,16.2,29.85,NE,36,15.0,15.0,10,0.00,,---,0.00,VWS V14.01,2013-05-15 03:47:00,
2013-05-14 21:53:00,75.9,15.5,29.85,NE,45,15.4,15.4,10,0.00,,---,0.00,VWS V14.01,2013-05-15 03:53:00,
2013-05-14 21:58:00,75.2,21.0,29.85,NE,52,14.5,14.5,13,0.00,,---,0.00,VWS V14.01,2013-05-15 03:58:00,
2013-05-14 22:01:00,74.8,20.7,29.85,NE,52,15.0,15.0,13,0.00,,---,0.00,VWS V14.01,2013-05-15 04:01:00,
2013-05-14 22:03:00,74.7,20.6,29.85,NE,53,16.3,17.9,13,0.00,,---,0.00,VWS V14.01,2013-05-15 04:03:00,
2013-05-14 22:04:00,74.7,20.6,29.85,NE,51,15.0,16.3,13,0.00,,---,0.00,VWS V14.01,2013-05-15 04:04:00,
2013-05-14 22:06:00,74.7,20.6,29.85,ENE,59,15.4,15.4,13,0.00,,---,0.00,VWS V14.01,2013-05-15 04:06:00,
2013-05-14 22:12:00,74.8,20.7,29.85,NE,36,15.4,15.4,13,0.00,,---,0.00,VWS V14.01,2013-05-15 04:12:00,
2013-05-14 22:18:00,75.4,21.2,29.85,ENE,62,17.9,17.9,13,0.00,,---,0.00,VWS V14.01,2013-05-15 04:18:00,
2013-05-14 22:23:00,75.7,21.5,29.85,ENE,72,15.4,15.4,13,0.00,,---,0.00,VWS V14.01,2013-05-15 04:23:00,
2013-05-14 22:29:00,75.4,21.2,29.85,East,84,12.8,13.2,13,0.00,,---,0.00,VWS V14.01,2013-05-15 04:29:00,
2013-05-14 22:34:00,74.7,20.6,29.85,East,88,11.0,11.0,13,0.00,,---,0.00,VWS V14.01,2013-05-15 04:34:00,
2013-05-14 22:39:00,74.1,20.2,29.88,East,85,10.5,10.5,13,0.00,,---,0.00,VWS V14.01,2013-05-15 04:39:00,
2013-05-14 22:45:00,73.4,19.6,29.88,East,91,10.1,10.1,13,0.00,,---,0.00,VWS V14.01,2013-05-15 04:45:00,
2013-05-14 22:50:00,73.6,19.8,29.88,ESE,117,11.0,11.4,13,0.00,,---,0.00,VWS V14.01,2013-05-15 04:50:00,
2013-05-14 22:56:00,73.4,19.6,29.88,ESE,110,10.1,10.1,13,0.00,,---,0.00,VWS V14.01,2013-05-15 04:56:00,
2013-05-14 23:01:00,73.0,21.1,29.88,ESE,119,10.1,10.1,14,0.00,,---,0.00,VWS V14.01,2013-05-15 05:01:00,
2013-05-14 23:07:00,72.5,23.8,29.88,East,87,8.1,8.1,16,0.00,,---,0.00,VWS V14.01,2013-05-15 05:07:00,
2013-05-14 23:12:00,72.0,23.4,29.88,ESE,112,9.6,11.9,16,0.00,,---,0.00,VWS V14.01,2013-05-15 05:12:00,
2013-05-14 23:18:00,72.0,27.5,29.88,ENE,63,10.1,10.1,19,0.00,,---,0.00,VWS V14.01,2013-05-15 05:18:00,
2013-05-14 23:24:00,72.5,27.9,29.91,NE,48,10.1,10.1,19,0.00,,---,0.00,VWS V14.01,2013-05-15 05:24:00,
2013-05-14 23:29:00,73.0,28.4,29.91,NE,46,11.0,11.0,19,0.00,,---,0.00,VWS V14.01,2013-05-15 05:29:00,
2013-05-14 23:35:00,73.0,24.2,29.91,NE,35,11.0,11.0,16,0.00,,---,0.00,VWS V14.01,2013-05-15 05:35:00,
2013-05-14 23:41:00,72.9,28.2,29.88,NNE,16,13.2,13.2,19,0.00,,---,0.00,VWS V14.01,2013-05-15 05:41:00,
2013-05-14 23:46:00,72.3,27.8,29.88,North,357,13.2,15.9,19,0.00,,---,0.00,VWS V14.01,2013-05-15 05:46:00,
2013-05-14 23:52:00,71.4,27.0,29.91,North,357,16.3,16.3,19,0.00,,---,0.00,VWS V14.01,2013-05-15 05:52:00,
2013-05-14 23:57:00,70.9,26.6,29.91,North,9,15.4,15.4,19,0.00,,---,0.00,VWS V14.01,2013-05-15 05:57:00,